| time (UTC) | temp F | wind direction | speed MPH | gust MPH | rain 1hr in | rain 24hr in | rain mn in | humidity % | barometer mb |
| 20260506094542 | 77 | 171 | 0.0 | 2.0 | 0.00 | 0.00 | 0.00 | 77 | 1006.4 |
| 20260506093042 | 77 | 171 | 0.0 | 3.0 | 0.00 | 0.00 | 0.00 | 76 | 1006.3 |
| 20260506091542 | 77 | 171 | 0.0 | 3.0 | 0.00 | 0.00 | 0.00 | 76 | 1006.2 |
| 20260506090041 | 77 | 171 | 1.0 | 3.0 | 0.00 | 0.00 | 0.00 | 76 | 1006.3 |
| 20260506084542 | 77 | 171 | 1.0 | 2.0 | 0.00 | 0.00 | 0.00 | 76 | 1006.3 |
| 20260506083038 | 77 | 171 | 1.0 | 2.0 | 0.00 | 0.00 | 0.00 | 76 | 1006.4 |
| 20260506081535 | 77 | 171 | 0.0 | 2.0 | 0.00 | 0.00 | 0.00 | 76 | 1006.7 |
| 20260506073031 | 77 | 171 | 1.0 | 2.0 | 0.00 | 0.00 | 0.00 | 75 | 1007.2 |
| 20260506071530 | 77 | 171 | 0.0 | 4.0 | 0.00 | 0.00 | 0.00 | 75 | 1007.2 |
| 20260506061528 | 77 | 187 | 1.0 | 3.0 | 0.00 | 0.00 | 0.00 | 75 | 1007.3 |
| 20260506044528 | 78 | 187 | 1.0 | 3.0 | 0.00 | 0.00 | 0.00 | 74 | 1007.3 |
| 20260506043123 | 78 | 187 | 1.0 | 3.0 | 0.00 | 0.00 | 0.00 | 73 | 1007.5 |
| 20260506041521 | 78 | 169 | 1.0 | 3.0 | 0.00 | 0.00 | 0.00 | 73 | 1007.3 |
| 20260506040020 | 78 | 168 | 1.0 | 3.0 | 0.00 | 0.00 | 0.00 | 73 | 1007.3 |
| 20260506034520 | 79 | 170 | 0.0 | 3.0 | 0.00 | 0.00 | 0.00 | 72 | 1007.0 |
| 20260506033028 | 79 | 170 | 0.0 | 3.0 | 0.00 | 0.00 | 0.00 | 72 | 1007.0 |
| 20260506031530 | 79 | 166 | 2.0 | 5.0 | 0.00 | 0.00 | 0.00 | 71 | 1006.9 |
| 20260506030041 | 79 | 152 | 0.0 | 3.0 | 0.00 | 0.00 | 0.00 | 71 | 1006.8 |
| 20260506024525 | 79 | 187 | 0.0 | 3.0 | 0.00 | 0.00 | 0.00 | 71 | 1006.4 |
| 20260506023018 | 79 | 181 | 2.0 | 4.0 | 0.00 | 0.00 | 0.00 | 70 | 1006.2 |
| 20260506021519 | 79 | 180 | 1.0 | 3.0 | 0.00 | 0.00 | 0.00 | 70 | 1006.0 |
| 20260506020016 | 80 | 180 | 1.0 | 2.0 | 0.00 | 0.00 | 0.00 | 69 | 1005.8 |
| 20260506014516 | 80 | 180 | 1.0 | 3.0 | 0.00 | 0.00 | 0.00 | 69 | 1005.7 |
| 20260506013016 | 80 | 178 | 1.0 | 3.0 | 0.00 | 0.00 | 0.00 | 68 | 1005.5 |
| 20260506011524 | 80 | 173 | 1.0 | 3.0 | 0.00 | 0.00 | 0.00 | 68 | 1005.2 |
| 20260506010015 | 81 | 188 | 1.0 | 3.0 | 0.00 | 0.00 | 0.00 | 67 | 1005.0 |
| 20260506004525 | 81 | 190 | 0.0 | 3.0 | 0.00 | 0.00 | 0.00 | 66 | 1005.0 |
| 20260506003017 | 81 | 155 | 1.0 | 3.0 | 0.00 | 0.00 | 0.00 | 66 | 1005.0 |
| 20260506001515 | 81 | 174 | 1.0 | 4.0 | 0.00 | 0.00 | 0.00 | 66 | 1004.7 |
| 20260506000018 | 82 | 187 | 1.0 | 4.0 | 0.00 | 0.00 | 0.00 | 66 | 1004.9 |
| 20260505234513 | 82 | 175 | 1.0 | 6.0 | 0.00 | 0.00 | 0.00 | 66 | 1004.7 |
| 20260505233012 | 82 | 178 | 1.0 | 3.0 | 0.00 | 0.00 | 0.00 | 66 | 1004.8 |
| 20260505231518 | 82 | 178 | 1.0 | 3.0 | 0.00 | 0.00 | 0.00 | 65 | 1004.8 |
| 20260505230013 | 83 | 173 | 2.0 | 4.0 | 0.00 | 0.00 | 0.00 | 64 | 1004.8 |
| 20260505224510 | 83 | 183 | 1.0 | 5.0 | 0.00 | 0.00 | 0.00 | 64 | 1004.5 |
| 20260505223007 | 83 | 175 | 1.0 | 5.0 | 0.00 | 0.00 | 0.00 | 65 | 1004.7 |
| 20260505221506 | 83 | 200 | 0.0 | 4.0 | 0.00 | 0.00 | 0.00 | 66 | 1004.7 |
| 20260505220005 | 83 | 221 | 0.0 | 3.0 | 0.00 | 0.00 | 0.00 | 66 | 1004.9 |
| 20260505214501 | 83 | 180 | 0.0 | 3.0 | 0.00 | 0.00 | 0.00 | 66 | 1005.1 |
| 20260505213118 | 83 | 180 | 1.0 | 4.0 | 0.00 | 0.00 | 0.00 | 65 | 1005.3 |
| 20260505211559 | 83 | 186 | 0.0 | 2.0 | 0.00 | 0.00 | 0.00 | 66 | 1005.4 |
| 20260505210106 | 83 | 186 | 1.0 | 3.0 | 0.00 | 0.00 | 0.00 | 65 | 1005.6 |
| 20260505204554 | 83 | 184 | 0.0 | 3.0 | 0.00 | 0.00 | 0.00 | 65 | 1005.7 |
| 20260505203056 | 84 | 167 | 1.0 | 4.0 | 0.00 | 0.00 | 0.00 | 64 | 1005.9 |
| 20260505201552 | 84 | 207 | 1.0 | 4.0 | 0.00 | 0.00 | 0.00 | 65 | 1006.1 |
| 20260505200048 | 83 | 156 | 1.0 | 4.0 | 0.00 | 0.00 | 0.00 | 66 | 1006.3 |
| 20260505194550 | 83 | 36 | 0.0 | 4.0 | 0.00 | 0.00 | 0.00 | 66 | 1006.6 |
| 20260505193102 | 83 | 173 | 1.0 | 5.0 | 0.00 | 0.00 | 0.00 | 66 | 1006.5 |
| 20260505191542 | 82 | 194 | 1.0 | 4.0 | 0.00 | 0.00 | 0.00 | 68 | 1006.8 |
| 20260505190042 | 82 | 172 | 1.0 | 4.0 | 0.00 | 0.00 | 0.00 | 67 | 1006.9 |
| 20260505184537 | 81 | 119 | 0.0 | 3.0 | 0.00 | 0.00 | 0.00 | 69 | 1007.0 |
| 20260505183035 | 81 | 182 | 0.0 | 3.0 | 0.00 | 0.00 | 0.00 | 69 | 1007.1 |
| 20260505181534 | 81 | 220 | 1.0 | 3.0 | 0.00 | 0.00 | 0.00 | 69 | 1007.1 |
| 20260505180038 | 80 | 175 | 1.0 | 3.0 | 0.00 | 0.00 | 0.00 | 70 | 1007.2 |
| 20260505174530 | 80 | 172 | 1.0 | 4.0 | 0.00 | 0.00 | 0.00 | 70 | 1007.3 |
| 20260505173028 | 79 | 182 | 0.0 | 3.0 | 0.00 | 0.00 | 0.00 | 72 | 1007.6 |
| 20260505171528 | 79 | 176 | 1.0 | 3.0 | 0.00 | 0.00 | 0.00 | 72 | 1007.7 |
| 20260505170024 | 78 | 176 | 0.0 | 3.0 | 0.00 | 0.00 | 0.00 | 73 | 1007.6 |
| 20260505164524 | 78 | 176 | 0.0 | 2.0 | 0.00 | 0.00 | 0.00 | 73 | 1007.8 |
| 20260505163030 | 78 | 164 | 0.0 | 4.0 | 0.00 | 0.00 | 0.00 | 72 | 1007.7 |
| 20260505161522 | 78 | 166 | 1.0 | 4.0 | 0.00 | 0.00 | 0.00 | 72 | 1007.6 |
| 20260505153023 | 77 | 19 | 0.0 | 3.0 | 0.00 | 0.00 | 0.00 | 72 | 1007.6 |
| 20260505151519 | 77 | 204 | 0.0 | 2.0 | 0.00 | 0.00 | 0.00 | 73 | 1007.4 |
| 20260505124504 | 74 | 207 | 1.0 | 3.0 | 0.00 | 0.00 | 0.00 | 76 | 1006.6 |
| 20260505123002 | 73 | 207 | 1.0 | 2.0 | 0.00 | 0.00 | 0.00 | 76 | 1006.9 |
| 20260505121502 | 73 | 207 | 0.0 | 3.0 | 0.00 | 0.00 | 0.00 | 76 | 1006.9 |
| 20260505120002 | 73 | 207 | 0.0 | 3.0 | 0.00 | 0.00 | 0.00 | 76 | 1006.6 |
| 20260505114600 | 73 | 207 | 1.0 | 2.0 | 0.00 | 0.00 | 0.00 | 76 | 1006.6 |
| 20260505113107 | 73 | 207 | 0.0 | 2.0 | 0.00 | 0.00 | 0.00 | 76 | 1006.7 |
| 20260505111557 | 73 | 207 | 0.0 | 2.0 | 0.00 | 0.00 | 0.00 | 76 | 1006.6 |
| 20260505101553 | 72 | 207 | 0.0 | 2.0 | 0.00 | 0.00 | 0.00 | 76 | 1006.7 |
| 20260505100053 | 72 | 207 | 0.0 | 1.0 | 0.00 | 0.00 | 0.00 | 76 | 1006.8 |